Flag for U.S.A. Weather past 2 weeks in Santa Rosa, California, U.S.A.

Now
56 °F

Clear.


Feels Like: 56 °F
Forecast: 46 / 55 °F
Wind: 3 mph from Southwest

Location: Santa Rosa Sonoma County Airport


UV Index: 0 (Low)

Visibility: 10 mi


Pressure: 29.94 "Hg

Humidity: 87%

Dew point: 52 °F

Location of Santa RosaLocation

Historic Weather in Santa Rosa

°F

Santa Rosa temperature yesterday

Maximum temperature yesterday: 69 °F (at 1:53 PM)
Minimum temperature yesterday: 47 °F (at 6:53 AM)
Average temperature yesterday: 57 °F

Past Weeks' High & Low Weather Summary

 TemperatureHumidityPressure
High81 °F (Apr 20, 2:53 PM)100% (Apr 9, 11:53 PM)30.12 "Hg (Apr 9, 11:53 PM)
Low42 °F (Apr 19, 3:53 AM)21% (Apr 21, 3:54 PM)29.76 "Hg (Apr 17, 3:53 PM)
Average57 °F74%29.96 "Hg
* Reported Apr 9 11:53 PM — Apr 24 11:53 PM, Santa Rosa, Weather by CustomWeather, © 2014

Note: Actual official high and low records may vary slightly from our data, if they occured in-between our weather recording intervals... More about our weather records

Advertising

Historic Weather Conditions — Data for Previous 24 hours

 ConditionsComfort  
Time TempWeatherWind HumidityBarometerVisibility
11:53 PM
Apr 24
56 °FClear.3 mph87%29.94 "Hg10 mi
10:53 PM57 °FPassing clouds.5 mph87%29.95 "Hg10 mi
9:53 PM57 °FOvercast.6 mph90%29.95 "Hg10 mi
8:53 PM57 °FCloudy.5 mph90%29.95 "Hg10 mi
7:53 PM58 °FOvercast.6 mph87%29.96 "Hg10 mi
6:53 PM58 °FLight rain. Overcast.9 mph87%29.98 "Hg10 mi
5:53 PM61 °FMostly cloudy.9 mph72%29.99 "Hg10 mi
4:53 PM62 °FCloudy.18 mph70%29.98 "Hg10 mi
3:53 PM65 °FCloudy.21 mph63%29.99 "Hg10 mi
2:53 PM68 °FOvercast.13 mph55%30.00 "Hg10 mi
1:53 PM69 °FPartly sunny.7 mph53%30.02 "Hg10 mi
12:53 PM66 °FPartly sunny.6 mph54%30.04 "Hg10 mi
11:53 AM66 °FBroken clouds.8 mph52%30.05 "Hg10 mi
10:53 AM62 °FBroken clouds.3 mph60%30.07 "Hg10 mi
9:53 AM61 °FBroken clouds.5 mph65%30.07 "Hg10 mi
8:53 AM58 °FSunny.5 mph75%30.07 "Hg10 mi
7:53 AM52 °FScattered clouds.No wind89%30.06 "Hg10 mi
6:53 AM47 °FPassing clouds.3 mph97%30.05 "Hg10 mi
5:53 AM50 °FPassing clouds.No wind89%30.05 "Hg10 mi
4:53 AM48 °FClear.No wind93%30.04 "Hg10 mi
3:53 AM50 °FClear.No wind89%30.04 "Hg10 mi
2:53 AM50 °FPassing clouds.No wind89%30.05 "Hg10 mi
1:53 AM50 °FClear.No wind89%30.06 "Hg10 mi
Weather by CustomWeather, © 2014

See weather overview